DAL1171 KDTW-KBOS

Flight info

Callsign DAL1171
Flight time 1h 22m
Altitude 37000
Route HHOWE4 LNCON JHW Q82 PONCT JFUND2
Aircraft B739/M-SDE2E3FGHIRWXY/LB1

Departure

Time 2026-05-05 13:00
Airport Detroit Metropolitan Wayne County Airport (KDTW)

Arrival

Time 2026-05-05 14:22
Airport Boston Logan International Airport (KBOS)
Time Latitude Longitude Altitude Speed Heading
2026-05-05 12:31 42.21408 -83.35469 641 ft 0 kts 118°
2026-05-05 12:48 42.21408 -83.35471 641 ft 1 kts 118°
2026-05-05 12:48 42.21416 -83.35487 641 ft 1 kts 118°
2026-05-05 12:48 42.21420 -83.35500 641 ft 2 kts 105°
2026-05-05 12:48 42.21420 -83.35521 641 ft 2 kts 75°
2026-05-05 12:49 42.21413 -83.35540 641 ft 2 kts 47°
2026-05-05 12:49 42.21400 -83.35552 641 ft 2 kts 18°
2026-05-05 12:49 42.21391 -83.35555 641 ft 1 kts
2026-05-05 12:49 42.21385 -83.35554 641 ft 0 kts
2026-05-05 12:51 42.21407 -83.35558 641 ft 4 kts 354°
2026-05-05 12:51 42.21445 -83.35544 641 ft 7 kts 26°
2026-05-05 12:51 42.21492 -83.35512 641 ft 8 kts 28°
2026-05-05 12:52 42.21536 -83.35456 640 ft 8 kts 60°
2026-05-05 12:52 42.21549 -83.35367 639 ft 11 kts 88°
2026-05-05 12:52 42.21550 -83.35251 638 ft 12 kts 89°
2026-05-05 12:52 42.21553 -83.35136 638 ft 11 kts 84°
2026-05-05 12:53 42.21584 -83.35049 638 ft 10 kts 46°
2026-05-05 12:53 42.21641 -83.34975 638 ft 12 kts 44°
2026-05-05 12:53 42.21704 -83.34894 638 ft 14 kts 44°
2026-05-05 12:53 42.21778 -83.34799 638 ft 14 kts 44°
2026-05-05 12:54 42.21835 -83.34631 638 ft 11 kts 89°
2026-05-05 12:54 42.21845 -83.34530 638 ft 10 kts 61°
2026-05-05 12:54 42.21911 -83.34461 638 ft 13 kts 29°
2026-05-05 12:55 42.21999 -83.34397 638 ft 13 kts 28°
2026-05-05 12:55 42.22080 -83.34338 638 ft 12 kts 29°
2026-05-05 12:55 42.22152 -83.34285 638 ft 11 kts 28°
2026-05-05 12:55 42.22226 -83.34231 638 ft 12 kts 28°
2026-05-05 12:56 42.22301 -83.34175 638 ft 12 kts 29°
2026-05-05 12:56 42.22378 -83.34118 637 ft 13 kts 29°
2026-05-05 12:56 42.22458 -83.34059 635 ft 12 kts 29°
2026-05-05 12:56 42.22533 -83.34004 635 ft 11 kts 28°
2026-05-05 12:57 42.22601 -83.33955 635 ft 11 kts 28°
2026-05-05 12:57 42.22673 -83.33902 635 ft 13 kts 28°
2026-05-05 12:57 42.22757 -83.33836 635 ft 14 kts 30°
2026-05-05 12:57 42.22819 -83.33791 635 ft 7 kts 29°
2026-05-05 12:58 42.22855 -83.33740 635 ft 7 kts 79°
2026-05-05 12:58 42.22843 -83.33678 635 ft 7 kts 119°
2026-05-05 12:58 42.22811 -83.33641 635 ft 5 kts 171°
2026-05-05 12:58 42.22770 -83.33660 635 ft 6 kts 208°
2026-05-05 12:59 42.22658 -83.33742 635 ft 48 kts 209°
2026-05-05 12:59 42.22136 -83.34125 638 ft 120 kts 210°
2026-05-05 12:59 42.21210 -83.34803 759 ft 169 kts 210°
2026-05-05 13:00 42.19104 -83.36163 2274 ft 182 kts 197°
2026-05-05 13:00 42.17747 -83.36053 2786 ft 204 kts 169°
2026-05-05 13:01 42.13137 -83.34444 4426 ft 249 kts 171°
2026-05-05 13:01 42.11534 -83.33549 5330 ft 256 kts 151°
2026-05-05 13:01 42.10317 -83.31746 6150 ft 271 kts 124°
2026-05-05 13:01 42.09727 -83.29241 6682 ft 295 kts 99°
2026-05-05 13:02 42.09704 -83.26402 7022 ft 309 kts 90°
2026-05-05 13:02 42.09952 -83.23346 7037 ft 315 kts 80°
2026-05-05 13:02 42.10454 -83.20505 7032 ft 312 kts 77°
2026-05-05 13:02 42.10997 -83.17650 7031 ft 313 kts 77°
2026-05-05 13:03 42.11560 -83.14728 7030 ft 312 kts 73°
2026-05-05 13:03 42.12291 -83.11793 7202 ft 328 kts 71°
2026-05-05 13:03 42.13116 -83.08771 8357 ft 319 kts 70°
2026-05-05 13:03 42.13900 -83.05921 9248 ft 320 kts 70°
2026-05-05 13:04 42.14701 -83.02991 9871 ft 330 kts 70°
2026-05-05 13:04 42.15562 -82.99817 10481 ft 342 kts 70°
2026-05-05 13:04 42.16467 -82.96471 10975 ft 358 kts 70°
2026-05-05 13:04 42.17399 -82.93018 11425 ft 375 kts 70°
2026-05-05 13:05 42.18377 -82.89383 11907 ft 390 kts 70°
2026-05-05 13:05 42.19389 -82.85611 12329 ft 406 kts 69°
2026-05-05 13:05 42.20446 -82.81665 12880 ft 418 kts 69°
2026-05-05 13:05 42.21489 -82.77773 13611 ft 423 kts 69°
2026-05-05 13:06 42.22536 -82.73855 14341 ft 428 kts 69°
2026-05-05 13:06 42.23581 -82.69896 15058 ft 432 kts 70°
2026-05-05 13:06 42.24443 -82.66000 15729 ft 436 kts 75°
2026-05-05 13:06 42.25054 -82.61881 16344 ft 442 kts 82°
2026-05-05 13:07 42.25404 -82.57680 16984 ft 445 kts 86°
2026-05-05 13:07 42.25606 -82.53382 17640 ft 448 kts 88°
2026-05-05 13:07 42.25744 -82.48945 18282 ft 452 kts 88°
2026-05-05 13:07 42.25841 -82.44535 18894 ft 456 kts 90°
2026-05-05 13:08 42.25832 -82.40105 19486 ft 460 kts 92°
2026-05-05 13:08 42.25758 -82.35738 19959 ft 466 kts 92°
2026-05-05 13:08 42.25660 -82.31153 20584 ft 468 kts 93°
2026-05-05 13:08 42.25564 -82.26706 21086 ft 472 kts 93°
2026-05-05 13:09 42.25474 -82.22232 21589 ft 476 kts 93°
2026-05-05 13:09 42.25392 -82.17725 22084 ft 480 kts 92°
2026-05-05 13:09 42.25314 -82.13088 22573 ft 484 kts 92°
2026-05-05 13:09 42.25243 -82.08491 23114 ft 486 kts 92°
2026-05-05 13:10 42.25174 -82.03819 23536 ft 492 kts 92°
2026-05-05 13:10 42.25106 -81.99134 24033 ft 495 kts 92°
2026-05-05 13:10 42.25039 -81.94405 24506 ft 499 kts 92°
2026-05-05 13:10 42.24972 -81.89704 24981 ft 502 kts 92°
2026-05-05 13:11 42.24905 -81.85020 25502 ft 504 kts 92°
2026-05-05 13:11 42.24834 -81.80239 25928 ft 507 kts 92°
2026-05-05 13:11 42.24763 -81.75515 26393 ft 509 kts 92°
2026-05-05 13:11 42.24688 -81.70674 26764 ft 514 kts 92°
2026-05-05 13:12 42.24611 -81.65833 27216 ft 516 kts 92°
2026-05-05 13:12 42.24527 -81.60735 27631 ft 520 kts 92°
2026-05-05 13:12 42.24444 -81.55830 28103 ft 521 kts 92°
2026-05-05 13:12 42.24360 -81.50951 28755 ft 518 kts 92°
2026-05-05 13:13 42.24283 -81.46115 29414 ft 514 kts 92°
2026-05-05 13:13 42.24214 -81.41289 29848 ft 515 kts 91°
2026-05-05 13:13 42.24149 -81.36451 30188 ft 518 kts 91°
2026-05-05 13:13 42.24086 -81.31636 30640 ft 518 kts 92°
2026-05-05 13:14 42.24019 -81.26720 31121 ft 517 kts 92°
2026-05-05 13:14 42.23948 -81.21743 31605 ft 516 kts 92°
2026-05-05 13:14 42.23875 -81.16746 32008 ft 516 kts 92°
2026-05-05 13:14 42.23796 -81.11580 32436 ft 516 kts 92°
2026-05-05 13:15 42.23717 -81.06554 32773 ft 518 kts 92°
2026-05-05 13:15 42.23635 -81.01553 33135 ft 519 kts 92°
2026-05-05 13:15 42.23548 -80.96497 33541 ft 518 kts 93°
2026-05-05 13:15 42.23458 -80.91362 33958 ft 518 kts 92°
2026-05-05 13:16 42.23365 -80.86291 34269 ft 519 kts 92°
2026-05-05 13:16 42.23270 -80.81232 34627 ft 519 kts 92°
2026-05-05 13:16 42.23174 -80.76128 34978 ft 519 kts 92°
2026-05-05 13:16 42.23077 -80.71062 35234 ft 520 kts 92°
2026-05-05 13:17 42.22973 -80.65725 35690 ft 516 kts 92°
2026-05-05 13:17 42.22873 -80.60676 36088 ft 512 kts 92°
2026-05-05 13:17 42.22767 -80.55490 36398 ft 511 kts 92°
2026-05-05 13:17 42.22658 -80.50388 36693 ft 510 kts 91°
2026-05-05 13:18 42.22440 -80.40543 36729 ft 509 kts 92°
2026-05-05 13:18 42.22219 -80.30790 36737 ft 505 kts 92°
2026-05-05 13:19 42.21989 -80.20990 36734 ft 506 kts 92°
2026-05-05 13:19 42.21745 -80.11075 36743 ft 504 kts 92°
2026-05-05 13:20 42.21489 -80.00990 36736 ft 504 kts 92°
2026-05-05 13:20 42.21223 -79.90837 36741 ft 503 kts 92°
2026-05-05 13:21 42.20953 -79.80776 36744 ft 502 kts 92°
2026-05-05 13:21 42.20669 -79.70566 36755 ft 500 kts 92°
2026-05-05 13:22 42.20380 -79.60510 36768 ft 498 kts 92°
2026-05-05 13:22 42.20081 -79.50465 36765 ft 497 kts 92°
2026-05-05 13:23 42.19776 -79.40478 36768 ft 497 kts 92°
2026-05-05 13:23 42.19461 -79.30384 36779 ft 495 kts 93°
2026-05-05 13:24 42.19133 -79.20342 36782 ft 493 kts 93°
2026-05-05 13:24 42.19127 -79.10497 36793 ft 490 kts 85°
2026-05-05 13:25 42.20102 -79.00684 36784 ft 491 kts 79°
2026-05-05 13:25 42.21405 -78.91102 36779 ft 490 kts 78°
2026-05-05 13:26 42.22716 -78.81537 36781 ft 490 kts 78°
2026-05-05 13:26 42.23999 -78.71764 36779 ft 491 kts 79°
2026-05-05 13:27 42.25228 -78.62067 36779 ft 491 kts 79°
2026-05-05 13:27 42.26437 -78.52387 36764 ft 490 kts 80°
2026-05-05 13:28 42.27642 -78.42654 36794 ft 492 kts 79°
2026-05-05 13:28 42.28258 -78.37611 36970 ft 496 kts 79°
2026-05-05 13:28 42.28860 -78.32670 37459 ft 493 kts 81°
2026-05-05 13:29 42.29454 -78.27781 38044 ft 488 kts 81°
2026-05-05 13:29 42.30052 -78.22849 38548 ft 484 kts 80°
2026-05-05 13:29 42.30641 -78.17974 38773 ft 485 kts 81°
2026-05-05 13:29 42.31233 -78.13065 38783 ft 486 kts 80°
2026-05-05 13:30 42.32401 -78.03323 38770 ft 484 kts 80°
2026-05-05 13:30 42.33563 -77.93547 38776 ft 483 kts 81°
2026-05-05 13:31 42.34693 -77.83952 38778 ft 483 kts 81°
2026-05-05 13:31 42.35818 -77.74338 38770 ft 484 kts 81°
2026-05-05 13:32 42.36958 -77.64519 38767 ft 486 kts 81°
2026-05-05 13:32 42.38097 -77.54662 38772 ft 484 kts 81°
2026-05-05 13:33 42.39158 -77.45410 38771 ft 484 kts 81°
2026-05-05 13:33 42.40268 -77.35643 38786 ft 483 kts 81°
2026-05-05 13:34 42.41357 -77.25967 38779 ft 484 kts 82°
2026-05-05 13:34 42.42437 -77.16298 38772 ft 484 kts 82°
2026-05-05 13:35 42.43522 -77.06540 38778 ft 484 kts 82°
2026-05-05 13:35 42.44582 -76.96897 38780 ft 484 kts 82°
2026-05-05 13:36 42.45627 -76.87279 38767 ft 484 kts 82°
2026-05-05 13:36 42.46680 -76.77492 38781 ft 484 kts 82°
2026-05-05 13:37 42.47720 -76.67764 38779 ft 484 kts 82°
2026-05-05 13:37 42.48781 -76.57827 38785 ft 491 kts 82°
2026-05-05 13:38 42.49837 -76.47870 38774 ft 494 kts 82°
2026-05-05 13:38 42.50850 -76.38236 38782 ft 492 kts 82°
2026-05-05 13:39 42.51808 -76.29044 38791 ft 494 kts 82°
2026-05-05 13:39 42.52799 -76.19439 38790 ft 493 kts 83°
2026-05-05 13:40 42.53798 -76.09650 38787 ft 493 kts 83°
2026-05-05 13:40 42.54784 -75.99894 38502 ft 481 kts 82°
2026-05-05 13:41 42.55260 -75.95163 38147 ft 478 kts 83°
2026-05-05 13:41 42.55725 -75.90510 37802 ft 477 kts 83°
2026-05-05 13:41 42.56180 -75.85924 37461 ft 477 kts 83°
2026-05-05 13:41 42.56644 -75.81223 37120 ft 479 kts 83°
2026-05-05 13:42 42.57112 -75.76475 36808 ft 480 kts 83°
2026-05-05 13:42 42.57587 -75.71661 36796 ft 477 kts 82°
2026-05-05 13:42 42.58551 -75.61820 36805 ft 483 kts 82°
2026-05-05 13:43 42.59449 -75.52598 36814 ft 480 kts 82°
2026-05-05 13:43 42.60371 -75.43047 36811 ft 480 kts 83°
2026-05-05 13:44 42.61295 -75.33367 36813 ft 479 kts 83°
2026-05-05 13:44 42.62222 -75.23542 36819 ft 486 kts 83°
2026-05-05 13:45 42.63166 -75.13435 36813 ft 496 kts 83°
2026-05-05 13:45 42.64085 -75.03507 36819 ft 494 kts 84°
2026-05-05 13:46 42.64533 -74.98646 36806 ft 483 kts 84°
2026-05-05 13:46 42.64976 -74.93837 36816 ft 475 kts 84°
2026-05-05 13:46 42.65836 -74.84419 36819 ft 477 kts 83°
2026-05-05 13:47 42.66700 -74.74825 36815 ft 478 kts 83°
2026-05-05 13:47 42.67567 -74.65124 36815 ft 476 kts 83°
2026-05-05 13:48 42.68433 -74.55315 36815 ft 477 kts 84°
2026-05-05 13:48 42.69276 -74.45670 36811 ft 477 kts 83°
2026-05-05 13:49 42.70110 -74.36047 36811 ft 478 kts 83°
2026-05-05 13:49 42.70926 -74.26542 36810 ft 476 kts 84°
2026-05-05 13:50 42.71707 -74.17371 36811 ft 476 kts 84°
2026-05-05 13:50 42.72474 -74.08273 36811 ft 476 kts 84°
2026-05-05 13:51 42.73242 -73.99049 36815 ft 476 kts 84°
2026-05-05 13:51 42.74005 -73.89786 36823 ft 475 kts 84°
2026-05-05 13:52 42.74736 -73.80497 36818 ft 475 kts 86°
2026-05-05 13:52 42.74890 -73.71265 36818 ft 476 kts 91°
2026-05-05 13:53 42.74734 -73.62015 36823 ft 475 kts 92°
2026-05-05 13:53 42.74572 -73.53102 36827 ft 474 kts 92°
2026-05-05 13:54 42.74443 -73.44102 36833 ft 474 kts 91°
2026-05-05 13:54 42.74341 -73.35205 36730 ft 469 kts 91°
2026-05-05 13:55 42.74293 -73.30772 36390 ft 463 kts 92°
2026-05-05 13:55 42.74246 -73.26432 35905 ft 460 kts 92°
2026-05-05 13:55 42.74200 -73.22092 35301 ft 460 kts 92°
2026-05-05 13:55 42.74152 -73.17770 34633 ft 462 kts 92°
2026-05-05 13:56 42.74089 -73.13290 33907 ft 463 kts 94°
2026-05-05 13:56 42.73886 -73.08929 33184 ft 463 kts 98°
2026-05-05 13:56 42.73496 -73.04602 32454 ft 464 kts 101°
2026-05-05 13:56 42.72998 -73.00221 31713 ft 464 kts 102°
2026-05-05 13:57 42.72443 -72.95720 30960 ft 465 kts 102°
2026-05-05 13:57 42.71889 -72.91329 30426 ft 460 kts 102°
2026-05-05 13:57 42.71337 -72.86942 29839 ft 457 kts 102°
2026-05-05 13:57 42.70796 -72.82571 29238 ft 454 kts 102°
2026-05-05 13:58 42.70251 -72.78128 28632 ft 451 kts 102°
2026-05-05 13:58 42.69711 -72.73684 28016 ft 448 kts 102°
2026-05-05 13:58 42.69173 -72.69223 27401 ft 444 kts 102°
2026-05-05 13:58 42.68635 -72.64735 26786 ft 441 kts 101°
2026-05-05 13:59 42.67554 -72.55779 25481 ft 436 kts 102°
2026-05-05 13:59 42.67016 -72.51365 24915 ft 432 kts 101°
2026-05-05 14:00 42.65969 -72.42813 23768 ft 424 kts 102°
2026-05-05 14:00 42.65618 -72.39951 23367 ft 422 kts 101°
2026-05-05 14:00 42.64928 -72.34353 22552 ft 419 kts 102°
2026-05-05 14:00 42.64408 -72.30125 21925 ft 413 kts 102°
2026-05-05 14:01 42.63915 -72.25972 21325 ft 405 kts 102°
2026-05-05 14:01 42.63439 -72.21857 20741 ft 402 kts 102°
2026-05-05 14:01 42.62965 -72.17751 20129 ft 401 kts 102°
2026-05-05 14:01 42.62497 -72.13700 19533 ft 399 kts 102°
2026-05-05 14:02 42.62024 -72.09637 18934 ft 397 kts 102°
2026-05-05 14:02 42.61551 -72.05592 18326 ft 395 kts 102°
2026-05-05 14:02 42.61082 -72.01624 17781 ft 393 kts 103°
2026-05-05 14:02 42.60592 -71.97612 17233 ft 389 kts 103°
2026-05-05 14:03 42.60109 -71.93732 16904 ft 381 kts 103°
2026-05-05 14:03 42.59629 -71.89895 16401 ft 379 kts 103°
2026-05-05 14:03 42.59163 -71.86182 15814 ft 379 kts 103°
2026-05-05 14:03 42.58709 -71.82579 15263 ft 379 kts 103°
2026-05-05 14:04 42.58217 -71.78958 14714 ft 378 kts 104°
2026-05-05 14:04 42.57660 -71.75351 14161 ft 377 kts 105°
2026-05-05 14:04 42.57066 -71.71707 13611 ft 377 kts 106°
2026-05-05 14:04 42.56472 -71.68098 13063 ft 375 kts 106°
2026-05-05 14:05 42.55888 -71.64513 12510 ft 368 kts 105°
2026-05-05 14:05 42.55319 -71.60975 12044 ft 361 kts 105°
2026-05-05 14:05 42.54729 -71.57426 11892 ft 348 kts 107°
2026-05-05 14:05 42.54079 -71.54102 11438 ft 346 kts 110°
2026-05-05 14:06 42.53373 -71.50828 10874 ft 348 kts 110°
2026-05-05 14:06 42.52661 -71.47575 10404 ft 346 kts 110°
2026-05-05 14:06 42.51958 -71.44305 10167 ft 337 kts 110°
2026-05-05 14:06 42.51299 -71.41173 10045 ft 325 kts 110°
2026-05-05 14:07 42.50645 -71.38055 9702 ft 321 kts 110°
2026-05-05 14:07 42.50019 -71.35043 9323 ft 314 kts 109°
2026-05-05 14:07 42.49427 -71.32087 9117 ft 301 kts 110°
2026-05-05 14:07 42.48866 -71.29246 8696 ft 303 kts 110°
2026-05-05 14:08 42.48301 -71.26414 8209 ft 306 kts 110°
2026-05-05 14:08 42.47746 -71.23640 7843 ft 300 kts 110°
2026-05-05 14:08 42.47212 -71.20958 7522 ft 295 kts 110°
2026-05-05 14:08 42.46681 -71.18257 7173 ft 294 kts 108°
2026-05-05 14:09 42.46406 -71.15522 6836 ft 298 kts 92°
2026-05-05 14:09 42.46851 -71.12808 6516 ft 299 kts 68°
2026-05-05 14:09 42.47802 -71.10269 6193 ft 297 kts 60°
2026-05-05 14:09 42.48909 -71.07861 6045 ft 287 kts 51°
2026-05-05 14:10 42.50328 -71.05988 5974 ft 274 kts 34°
2026-05-05 14:10 42.52009 -71.04723 5983 ft 268 kts 18°
2026-05-05 14:10 42.53793 -71.03862 5881 ft 262 kts 13°
2026-05-05 14:10 42.55593 -71.03075 5509 ft 265 kts 14°
2026-05-05 14:11 42.57418 -71.02240 5223 ft 264 kts 15°
2026-05-05 14:11 42.59184 -71.01383 4941 ft 263 kts 16°
2026-05-05 14:11 42.61002 -71.00441 4850 ft 252 kts 17°
2026-05-05 14:11 42.62725 -70.99524 4547 ft 253 kts 17°
2026-05-05 14:12 42.64447 -70.98611 4282 ft 251 kts 17°
2026-05-05 14:12 42.66155 -70.97716 4034 ft 249 kts 17°
2026-05-05 14:12 42.67822 -70.96842 3981 ft 235 kts 18°
2026-05-05 14:12 42.69235 -70.95709 3963 ft 224 kts 45°
2026-05-05 14:13 42.69998 -70.93835 3977 ft 219 kts 79°
2026-05-05 14:13 42.70153 -70.91666 3973 ft 214 kts 98°
2026-05-05 14:13 42.69833 -70.89671 3972 ft 202 kts 125°
2026-05-05 14:13 42.68927 -70.88188 3979 ft 191 kts 149°
2026-05-05 14:14 42.67794 -70.87178 3977 ft 182 kts 164°
2026-05-05 14:14 42.66585 -70.86843 3981 ft 173 kts 185°
2026-05-05 14:14 42.65390 -70.86945 3976 ft 170 kts 193°
2026-05-05 14:14 42.64249 -70.87247 3974 ft 167 kts 199°
2026-05-05 14:15 42.63126 -70.87685 3975 ft 167 kts 202°
2026-05-05 14:15 42.62022 -70.88176 3974 ft 167 kts 203°
2026-05-05 14:15 42.60917 -70.88694 3974 ft 166 kts 204°
2026-05-05 14:15 42.59842 -70.89209 3978 ft 164 kts 204°
2026-05-05 14:16 42.58762 -70.89732 3990 ft 159 kts 204°
2026-05-05 14:16 42.57735 -70.90228 3992 ft 156 kts 205°
2026-05-05 14:16 42.56718 -70.90721 3984 ft 154 kts 204°
2026-05-05 14:16 42.55691 -70.91222 3873 ft 157 kts 204°
2026-05-05 14:17 42.54668 -70.91718 3615 ft 154 kts 204°
2026-05-05 14:17 42.53666 -70.92203 3413 ft 154 kts 204°
2026-05-05 14:17 42.52657 -70.92694 3199 ft 153 kts 204°
2026-05-05 14:17 42.51651 -70.93182 2989 ft 153 kts 204°
2026-05-05 14:18 42.50653 -70.93662 2782 ft 153 kts 204°
2026-05-05 14:18 42.49654 -70.94146 2570 ft 151 kts 203°
2026-05-05 14:18 42.48653 -70.94638 2362 ft 151 kts 202°
2026-05-05 14:18 42.47660 -70.95105 2156 ft 150 kts 202°
2026-05-05 14:19 42.46688 -70.95576 1963 ft 148 kts 202°
2026-05-05 14:19 42.45714 -70.96050 1745 ft 144 kts 202°
2026-05-05 14:19 42.44803 -70.96490 1575 ft 138 kts 202°
2026-05-05 14:19 42.43882 -70.96938 1370 ft 139 kts 202°
2026-05-05 14:20 42.42981 -70.97372 1190 ft 139 kts 202°
2026-05-05 14:20 42.42058 -70.97829 985 ft 141 kts 201°
2026-05-05 14:20 42.41133 -70.98233 833 ft 139 kts 200°
2026-05-05 14:20 42.40230 -70.98700 631 ft 140 kts 202°
2026-05-05 14:21 42.39304 -70.99135 458 ft 141 kts 200°
2026-05-05 14:21 42.38377 -70.99595 235 ft 143 kts 199°
2026-05-05 14:21 42.37425 -71.00058 51 ft 144 kts 200°
2026-05-05 14:21 42.36533 -71.00492 15 ft 102 kts 198°
2026-05-05 14:22 42.36096 -71.00703 16 ft 25 kts 200°
2026-05-05 14:22 42.35959 -71.00839 19 ft 22 kts 226°
2026-05-05 14:22 42.35870 -71.00986 19 ft 17 kts 230°
2026-05-05 14:22 42.35833 -71.01133 19 ft 16 kts 278°
2026-05-05 14:23 42.35846 -71.01258 21 ft 10 kts 278°
2026-05-05 14:23 42.35854 -71.01348 22 ft 9 kts 277°
2026-05-05 14:23 42.35867 -71.01453 22 ft 12 kts 279°
2026-05-05 14:23 42.35884 -71.01566 21 ft 13 kts 280°
2026-05-05 14:24 42.35902 -71.01703 19 ft 14 kts 280°
2026-05-05 14:24 42.35927 -71.01829 19 ft 13 kts 292°
2026-05-05 14:24 42.35972 -71.01941 19 ft 13 kts 301°
2026-05-05 14:24 42.36021 -71.02052 18 ft 14 kts 301°
2026-05-05 14:25 42.36076 -71.02175 16 ft 15 kts 301°
2026-05-05 14:25 42.36137 -71.02268 16 ft 12 kts 339°
2026-05-05 14:25 42.36216 -71.02262 16 ft 11 kts 20°
2026-05-05 14:25 42.36283 -71.02229 16 ft 9 kts 19°
2026-05-05 14:26 42.36286 -71.02170 16 ft 5 kts 109°
2026-05-05 14:26 42.36301 -71.02138 16 ft 4 kts 18°
2026-05-05 14:26 42.36325 -71.02126 16 ft 1 kts 17°
2026-05-05 14:26 42.36328 -71.02125 16 ft 0 kts 17°